ASTROSAT (40930 NORAD) Tracking and Keplerian Element Data

This shows tracking and keplerian element data for the satellite.

Feedback or suggestion? Click here.




ElementValue
Catalog40930
NameASTROSAT
Epoch Orbit50567
Epoch Day34.07890803
Epoch Year2025
RAAN143.8216
Inclination5.9963
Eccentricity0.000749
Argument of Perigee116.1192
Mean Anonmoly243.9706
Mean Motion14.80816026
Decay Rate3.478E-05
L11 40930U 15052A 25034.07890803 .00003478 00000+0 35627-3 0 9995
L22 40930 5.9963 143.8216 0007490 116.1192 243.9706 14.80816026505676



Live tracking and technical data element details for ASTROSAT (NORAD 40930). ASTROSAT can be tracked NOW for your location showing map with azimuth and elevation plus other details from your city location.







IsCatalogInMostPopularTable: catalog: 40930, numindb: 579
Update: records affected: 1



GetName: 40930 ASTROSAT

Hit Count: updated at: Fri, 16 May 2025 11:16:54 GMT